Погода в Бурукане

Погода в Бурукане : погода сейчас, прогноз погоды и архив. Всё, что Вы хотите узнать о погоде в Бурукане!

Поиск расширенной информации на нашем сайте:

Другие новости

Новости СМИ2

Главная страница сайта

Новости сайта

03.07.2017

Напоминаем, что на нашем специализированном сайте Метеоцентр.Азия вы можете получить высокодетализированные автоматические прогнозы погоды по пунктам России, СНГ и мира в авиационном формате (включающие направление и скорость ветра, видимость, явления погоды, количество и форму облачности, нижнюю и верхнюю границу облачности).

Рекомендуем: шарж минск

Погода в Бурукане - сегодня

Время (UTC), дата Ветер
(°,м/с) 
Видим.   Явления Облачность Т
(°С)
Тd
(°С)
f(%) Тe
(°С)
Pmin
(гПа)
dP
(гПа)
Po
(мм)
O2
(г/м3)
Тmin Tmax R s Состояние
почвы
12 20.04.18 360 (С) 20000 м    9/3 600 м средняя, верхняя 
[Sc|Ac trans|Ci fib]
+5.5 -4.1 50 +5  1008.2  1.3  742  294           
15 20.04.18 330 (СЗ) 20000 м    10/5 600 м средняя 
[Sc|Ac und]
+4 -7 45 +5  1007.1  -1.1  741  295           
18 20.04.18 360 (С) 2000 м  ливневой снег  10/10 600 м кучево-дожд. 
[Cb cap]
+0 -0.3 98 -1  1007.6  0.2  741  299           
21 20.04.18 010 (С) 1000 м  ливневой снег  10/10 600 м кучево-дожд. 
[Cb cap|Ns]
+0.1 -0 99 -1  1008.8  1.1  742  299  -0.1    равномерный
мокрый или
старый снег
100% 
00 21.04.18 350 (С) 20000 м  в посл. час ливневой снег  10/8 600 м кучево-дожд., средняя 
[Cb cap|Ac und]
+1.3 +0.3 93 +1  1011  2.2  744  298           
03 21.04.18 010 (С) 3{11}  20000 м    10/10 600 м кучево-дожд. 
[Cb cap]
+3.5 +0.7 82 +2  1014.3  3.4  747  297           
06 21.04.18 020 (С) 4{13}  20000 м    8/8 600 м кучево-дожд. 
[Cb cap]
+5.4 -2.8 55 +4  1015.7  1.5  748  296           
12 21.04.18 тихо ()   20000 м    3/0 средняя 
[Ac trans]
-2.8 -3.6 94 -3  1020.9  751  306           
15 21.04.18 тихо ()   20000 м    ясно 
-6.3 -6.8 96 -6  1021.5  0.3  751  311           
18 21.04.18 360 (С) 20000 м    ясно 
-8.3 -8.9 95 -8  1022.2  0.5  752  313           
00 22.04.18 030 (СВ) 20000 м    10/1 600 м средняя, верхняя 
[Sc|Ac trans|Ci fib]
+3.6 -4.1 57 +4  1023.1  0.9  753  300           
03 22.04.18 270 (З) 20000 м    8/3 600 м кучево-дожд., средняя, верхняя 
[Cb cap|Ac trans|Ci fib]
+6.3 -7.8 36 +6  1022.3  -0.6  753  297           
12 22.04.18 тихо ()   20000 м    1/0 верхняя 
[Ci fib]
-2.9 -10.6 55 -3  1024.3  1.2  754  308           
15 22.04.18 тихо ()   20000 м    ясно 
-7.7 -10.1 83 -8  1025  0.4  754  314           
18 22.04.18 тихо ()   20000 м    ясно 
-10 -11 92 -10  1024.7  -0.5  753  316           
00 23.04.18 080 (В) 20000 м    1/0 верхняя 
[Ci fib]
+6.9 -7.4 35 +7  1022.7  -1.1  753  297           
06 23.04.18 330 (СЗ) 20000 м    10/5 600 м кучево-дожд., верхняя 
[Cb cap|Ci sp]
+13.7 -9.5 19 +14  1017.5  -2  749  288           
12 23.04.18 тихо ()   20000 м    4/0 верхняя 
[Ci fib]
+1.1 -7.5 53 +1  1018.8  1.1  750  302           
15 23.04.18 тихо ()   20000 м    8/0 верхняя 
[Ci fib]
-1.4 -6.8 67 -1  1018.2  -0.8  749  304           
18 23.04.18 тихо ()   20000 м    ясно 
-5.4 -7.8 83 -5  1017.2  -1.3  748  308           
00 24.04.18 180 (Ю) 20000 м    10/3 600 м средняя, верхняя 
[Sc|Ac trans|Ci fib]
+5.8 -4.6 47 +6  1014.3  -1.5  747  295           
03 24.04.18 150 (ЮВ) 20000 м    8/3 600 м кучево-дожд., средняя, верхняя 
[Cb cap|Ac trans|Ci fib]
+13 -6.2 26 +13  1010.8  -2.9  744  287           
06 24.04.18 150 (ЮВ) 20000 м    1/0 средняя, верхняя 
[Ac trans|Ci fib]
+17.1 -4.2 23 +18  1008  -2.6  743  282           
12 24.04.18 тихо ()   20000 м    ясно 
+1.6 -4.6 63 +2  1008.6  0.3  742  298           
15 24.04.18 010 (С) 20000 м    ясно 
-2.3 -5.2 80 -2  1007.5  -1.3  741  302           
Время (UTC), дата Ветер
(°,м/с) 
Видим.   Явления Облачность Т
(°С)
Тd
(°С)
f(%) Тe
(°С)
Pmin
(гПа)
dP
(гПа)
Po
(мм)
O2
(г/м3)
Тmin Tmax R s Состояние
почвы

Для получения пояснительной информации подведите курсор к названию столбца.

ПОГОДА в Бурукане - архив

Всё, что Вы хотите узнать о погоде в Бурукане - удобно и подробно!

Выберите нужную дату (начиная с 1 января 2015* года) и нажмите кнопку "Найти".
Будут отображены архивные сводки погоды по пункту Бурукан, начиная с указанной даты.


Отображать данные в формате CSV (для использования в таблицах Excel)


Внимание! Наш архив погоды предназначен исключительно для личного некоммерческого использования в познавательных целях. Если Вам необходимы официальные справки о состоянии погоды (для производственных, юридических, коммерческих и т.п. целей), обращайтесь в органы Росгидромета.

*Примечание: данная дата относится к архиву по метеостанциям СССР (Россия, СНГ, Балтия).
Архив по метеостанциям Зарубежной Европы и Азии (кроме Китая) хранится 10 дней, по другим регионам земного шара (Китай, Африка, Америка, Австралия, Океания) - 1 день.

Бурукан - район местоположения метеостанции


Название, широта, долгота, высота метеостанции:
Бурукан 53.1°ш. 136°д. 153 м над ур. моря [Российская Федерация]

Дополнительная информация

В oтличие oт бoльшинства пoгoдных сайтoв мы публикуем пoдрoбную метеoинфoрмацию в детальнoм прoфессиoнальнoм фoрмате.

Характеристики температуры и влажнoсти вoздуха измеряются на высoте 2 м в тени вдали oт зданий и деревьев.
Скoрoсть ветра измеряется на высoте 10 м (на урoвне рoста челoвека скoрoсть ветра ниже в 1.5-2 раза). Если метеoстанция нахoдится в гoрoде или в лесу, тo скoрoсть ветра занижена на 2-4 м/с пo сравнению с oткрытым местoм. Скoрoсть ветра над акватoриями крупных рек и oзёр, а также на вершинах хoлмoв на 2-5 м/с выше, чем в oбычных услoвиях.
Атмoсфернoе давление в разных тoчках местнoсти мoжет значительнo oтличаться oт давления на метеoстанции, в зависимoсти oт услoвий рельефа (при пoдъёме на 10 м давление пoнижается примернo на 1 мм рт.ст.).